Weather History for Covington, KY

Change the Weather History Date:

Friday, October 25, 2013

  Actual Average Record
Temperature  
Mean Temperature 39 °F 53 °F  
Max Temperature 49 °F 63 °F 82 °F (1963)
Min Temperature 28 °F 43 °F 25 °F (1960)
Degree Days  
Heating Degree Days 26 12  
Month to date heating degree days 218 223  
Since 1 July heating degree days 248 281  
Cooling Degree Days 0 0  
Month to date cooling degree days 30 16  
Year to date cooling degree days 1150 1121  
Moisture  
Dew Point 28 °F    
Average Humidity 69    
Maximum Humidity 96    
Minimum Humidity 42    
Precipitation  
Precipitation 0.00 in 0.10 in 1.67 in (2002)
Month to date precipitation 4.52 2.65  
Year to date precipitation 41.22 35.07  
Snow  
Snow 0.00 in 0.10 in 1.70 in (1962)
Month to date snowfall T 0.3  
Since 1 July snowfall T 0.3  
Since 1 September snowfall T 0.3  
Snow Depth 0.00 in    
Sea Level Pressure  
Sea Level Pressure 30.38 in    
Wind  
Wind Speed 6 mph (WSW)    
Max Wind Speed 9 mph    
Max Gust Speed 15 mph    
Visibility 10 miles    
Events      
T = Trace of Precipitation, MM = Missing Value Source: NWS Daily Summary

Daily Weather History Graph

Daily Weather History Graph

Search for Another Location

Airport:

Trip Planner

Search our weather history database for the weather conditions in past years. The results will help you decide how hot, cold, wet, or windy it might be!

Date:

Astronomy

Oct. 25, 2013 Rise Set
Actual Time 7:58 AM EDT 6:46 PM EDT
Civil Twilight 7:31 AM EDT 7:13 PM EDT
Nautical Twilight 7:00 AM EDT 7:44 PM EDT
Astronomical Twilight 6:29 AM EDT 8:15 PM EDT
Moon No Moon Rise 1:37 PM EDT (10/25)
Length of Visible Light 11h 41m
Length of Day
10h 47m
Waning Gibbous, 62% of the Moon is Illuminated
Oct 25
Waning Gibbous
Oct 26
Last Quarter
Nov 3
New
Nov 10
First Quarter
Nov 17
Full

Hourly Weather History & Observations

Time (EDT) Temp. Windchill Dew Point Humidity Pressure Visibility Wind Dir Wind Speed Gust Speed Precip Events Conditions
12:52 AM 36.0 °F 29.6 °F 33.1 °F 89% 30.30 in 8.0 mi West 8.1 mph - N/A   Overcast
1:52 AM 33.1 °F 26.1 °F 32.0 °F 96% 30.31 in 7.0 mi West 8.1 mph - N/A   Mostly Cloudy
2:52 AM 34.0 °F 26.6 °F 30.9 °F 89% 30.32 in 10.0 mi WNW 9.2 mph - N/A   Overcast
3:52 AM 34.0 °F 27.2 °F 30.0 °F 85% 30.34 in 10.0 mi WNW 8.1 mph - N/A   Mostly Cloudy
4:52 AM 30.9 °F 24.3 °F 28.9 °F 92% 30.35 in 9.0 mi West 6.9 mph - N/A   Scattered Clouds
5:52 AM 30.0 °F 25.2 °F 27.0 °F 88% 30.38 in 10.0 mi West 4.6 mph - N/A   Clear
6:52 AM 30.0 °F 26.5 °F 26.1 °F 85% 30.40 in 10.0 mi West 3.5 mph - N/A   Clear
7:52 AM 28.9 °F 25.2 °F 26.1 °F 89% 30.42 in 10.0 mi Variable 3.5 mph - N/A   Clear
8:52 AM 30.0 °F 26.5 °F 27.0 °F 88% 30.44 in 9.0 mi West 3.5 mph - N/A   Clear
9:52 AM 34.0 °F 29.8 °F 28.0 °F 79% 30.46 in 10.0 mi West 4.6 mph - N/A   Clear
10:52 AM 39.0 °F - 30.0 °F 70% 30.45 in 10.0 mi Calm Calm - N/A   Clear
11:52 AM 42.1 °F 39.2 °F 30.0 °F 62% 30.45 in 10.0 mi Variable 4.6 mph - N/A   Clear
12:52 PM 45.0 °F 42.6 °F 28.9 °F 53% 30.45 in 10.0 mi Variable 4.6 mph - N/A   Partly Cloudy
1:52 PM 45.0 °F 42.6 °F 26.1 °F 48% 30.42 in 10.0 mi WNW 4.6 mph - N/A   Scattered Clouds
2:52 PM 48.0 °F - 27.0 °F 44% 30.40 in 10.0 mi SW 8.1 mph - N/A   Mostly Cloudy
3:52 PM 48.0 °F - 27.0 °F 44% 30.39 in 10.0 mi WSW 8.1 mph - N/A   Mostly Cloudy
4:52 PM 45.0 °F 41.2 °F 27.0 °F 49% 30.38 in 10.0 mi West 6.9 mph - N/A   Partly Cloudy
5:52 PM 46.0 °F 43.1 °F 26.1 °F 46% 30.36 in 10.0 mi West 5.8 mph - N/A   Partly Cloudy
6:52 PM 43.0 °F 41.3 °F 24.1 °F 47% 30.36 in 10.0 mi WSW 3.5 mph - N/A   Clear
7:52 PM 35.1 °F 31.0 °F 28.0 °F 76% 30.36 in 10.0 mi SSW 4.6 mph - N/A   Clear
8:52 PM 34.0 °F 28.8 °F 27.0 °F 75% 30.35 in 10.0 mi SSW 5.8 mph - N/A   Clear
9:52 PM 34.0 °F 28.8 °F 27.0 °F 75% 30.34 in 10.0 mi SSW 5.8 mph - N/A   Clear
10:52 PM 35.1 °F 29.3 °F 26.1 °F 70% 30.32 in 10.0 mi SSW 6.9 mph - N/A   Clear
11:52 PM 34.0 °F 28.8 °F 26.1 °F 73% 30.31 in 10.0 mi SSW 5.8 mph - N/A   Clear